Tracking 18186 objects as of 29-March-2017
HD Live streaming from Space Station
objects crossing your sky now

ARIANE 44L+3 R/B

Track ARIANE 44L+3 R/B now!


NORAD ID: 23866
Int'l Code: 1996-030C
Perigee: -6,371.0 km
Apogee: -6,371.0 km
Inclination: 4.1 °
Period: 0.0 minutes
Semi major axis: 0 km
RCS: 20.3809 m2 (large)
Launch date: May 16, 1996
Source: France (FR)
Launch site: FRENCH GUIANA (FRGUI)

Note: This is a ROCKET BODY
Your satellite tracking list
Your tracking list is empty





NASA's NSSDC Master Catalog

Two Line Element Set (TLE):
1 23866U 96030C   17087.72110186 +.00001897 +00000-0 +10405-2 0  9999
2 23866 004.0807 213.0761 6951782 218.2629 062.6821 02.67913463188917
Source of the keplerian elements: AFSPC